TimeCDT,TemperatureF,Dew PointF,Humidity,Sea Level PressureIn,VisibilityMPH,Wind Direction,Wind SpeedMPH,Gust SpeedMPH,PrecipitationIn,Events,Conditions,WindDirDegrees,DateUTC
12:15 AM,27.5,22.8,83,29.88,10.0,North,13.8,-,N/A,,Overcast,350,2013-03-23 05:15:00
12:35 AM,27.5,22.6,82,29.89,10.0,NNW,11.5,16.1,N/A,,Overcast,340,2013-03-23 05:35:00
12:55 AM,27.1,22.5,83,29.89,10.0,North,15.0,-,N/A,,Overcast,350,2013-03-23 05:55:00
1:15 AM,27.3,23.4,85,29.88,7.0,North,16.1,24.2,N/A,Snow,Light Snow,10,2013-03-23 06:15:00
1:35 AM,27.3,23.7,86,29.89,7.0,North,12.7,-,N/A,Snow,Light Snow,360,2013-03-23 06:35:00
1:55 AM,26.6,23.0,86,29.90,10.0,North,12.7,-,N/A,,Overcast,360,2013-03-23 06:55:00
2:15 AM,26.6,23.0,86,29.88,10.0,North,12.7,-,N/A,,Overcast,10,2013-03-23 07:15:00
2:35 AM,26.2,22.6,86,29.90,10.0,North,16.1,21.9,N/A,,Overcast,10,2013-03-23 07:35:00
3:15 AM,25.7,22.5,88,29.87,10.0,North,20.7,-,N/A,,Overcast,10,2013-03-23 08:15:00
3:35 AM,25.2,23.0,91,29.87,7.0,North,18.4,26.5,N/A,,Overcast,10,2013-03-23 08:35:00
3:55 AM,24.8,23.0,93,29.87,7.0,North,18.4,23.0,N/A,,Overcast,10,2013-03-23 08:55:00
4:15 AM,24.6,23.0,94,29.87,5.0,North,16.1,23.0,N/A,Snow,Light Snow,360,2013-03-23 09:15:00
4:35 AM,24.3,22.1,91,29.87,5.0,North,20.7,25.3,N/A,Snow,Light Snow,360,2013-03-23 09:35:00
4:55 AM,23.7,21.2,90,29.87,3.0,North,17.3,21.9,N/A,Snow,Light Snow,360,2013-03-23 09:55:00
5:15 AM,23.0,20.7,91,29.88,2.5,North,19.6,26.5,N/A,Snow,Light Snow,360,2013-03-23 10:15:00
5:35 AM,22.1,19.8,91,29.89,2.0,North,18.4,24.2,N/A,Snow,Light Snow,360,2013-03-23 10:35:00
5:55 AM,21.7,19.4,91,29.90,1.8,North,19.6,24.2,N/A,Snow,Light Snow,360,2013-03-23 10:55:00
6:15 AM,21.2,18.5,89,29.91,1.2,North,23.0,26.5,N/A,Snow,Light Snow,10,2013-03-23 11:15:00
6:35 AM,20.5,17.8,89,29.91,1.0,North,19.6,26.5,N/A,Snow,Light Snow,10,2013-03-23 11:35:00
6:55 AM,19.9,17.2,89,29.92,1.2,North,19.6,25.3,N/A,Snow,Light Snow,360,2013-03-23 11:55:00
7:15 AM,19.4,16.7,89,29.93,1.2,North,20.7,-,N/A,Snow,Light Snow,10,2013-03-23 12:15:00
7:35 AM,19.0,16.3,89,29.94,1.5,North,20.7,28.8,N/A,Snow,Light Snow,10,2013-03-23 12:35:00
7:55 AM,19.0,16.2,89,29.94,1.8,North,19.6,-,N/A,Snow,Light Snow,10,2013-03-23 12:55:00
8:15 AM,18.5,15.4,88,29.95,1.0,North,20.7,25.3,N/A,Snow,Light Snow,10,2013-03-23 13:15:00
8:35 AM,17.6,14.4,87,29.96,1.0,North,23.0,27.6,N/A,Snow,Light Snow,10,2013-03-23 13:35:00
8:55 AM,16.7,13.5,87,29.96,1.0,North,20.7,28.8,N/A,Snow,Light Snow,10,2013-03-23 13:55:00
9:15 AM,16.5,13.1,86,29.96,2.0,North,18.4,-,N/A,Snow,Light Snow,10,2013-03-23 14:15:00
9:35 AM,16.2,12.2,84,29.97,2.0,North,21.9,28.8,N/A,Snow,Light Snow,10,2013-03-23 14:35:00
9:55 AM,16.2,11.8,83,29.98,2.0,North,21.9,28.8,N/A,Snow,Light Snow,360,2013-03-23 14:55:00
10:15 AM,16.2,12.0,84,29.98,1.5,North,23.0,31.1,N/A,Snow,Light Snow,360,2013-03-23 15:15:00
10:35 AM,16.3,12.2,84,29.99,1.2,North,18.4,25.3,N/A,Snow,Light Snow,360,2013-03-23 15:35:00
10:55 AM,16.3,11.3,81,30.00,1.8,North,24.2,28.8,N/A,Snow,Light Snow,360,2013-03-23 15:55:00
11:15 AM,16.5,12.2,83,30.00,1.5,North,19.6,-,N/A,Snow,Light Snow,360,2013-03-23 16:15:00
11:35 AM,17.1,12.2,81,30.01,1.8,North,19.6,25.3,N/A,Snow,Light Snow,350,2013-03-23 16:35:00
11:55 AM,16.9,11.7,80,30.02,1.8,North,19.6,25.3,N/A,Snow,Light Snow,360,2013-03-23 16:55:00
12:15 PM,17.6,12.0,79,30.02,2.0,North,18.4,27.6,N/A,Snow,Light Snow,360,2013-03-23 17:15:00
12:35 PM,18.3,12.0,76,30.02,2.5,North,21.9,-,N/A,Snow,Light Snow,360,2013-03-23 17:35:00
12:55 PM,19.0,13.6,79,30.02,3.0,North,17.3,-,N/A,,Haze,350,2013-03-23 17:55:00
1:15 PM,19.9,13.5,76,30.02,3.0,North,19.6,-,N/A,,Haze,360,2013-03-23 18:15:00
1:35 PM,20.1,14.5,79,30.02,2.0,North,16.1,-,N/A,Snow,Light Snow,360,2013-03-23 18:35:00
1:55 PM,20.8,14.0,75,30.03,3.0,North,16.1,20.7,N/A,Snow,Light Snow,360,2013-03-23 18:55:00
2:15 PM,20.8,14.2,75,30.03,3.0,North,17.3,-,N/A,Snow,Light Snow,360,2013-03-23 19:15:00
2:35 PM,21.2,14.2,74,30.03,5.0,North,15.0,-,N/A,Snow,Light Snow,360,2013-03-23 19:35:00
2:55 PM,21.4,14.7,75,30.03,5.0,North,16.1,-,N/A,Snow,Light Snow,360,2013-03-23 19:55:00
3:15 PM,21.9,14.9,74,30.03,7.0,North,13.8,20.7,N/A,Snow,Light Snow,10,2013-03-23 20:15:00
3:35 PM,22.1,15.3,75,30.03,10.0,North,15.0,-,N/A,,Overcast,350,2013-03-23 20:35:00
3:55 PM,22.5,15.1,73,30.04,10.0,North,17.3,23.0,N/A,,Overcast,360,2013-03-23 20:55:00
4:15 PM,23.2,16.0,74,30.04,10.0,North,10.4,18.4,N/A,,Mostly Cloudy,10,2013-03-23 21:15:00
4:35 PM,23.5,15.4,71,30.04,10.0,NNE,12.7,-,N/A,,Overcast,20,2013-03-23 21:35:00
4:55 PM,23.7,15.8,72,30.04,10.0,North,12.7,18.4,N/A,,Overcast,10,2013-03-23 21:55:00
5:15 PM,23.9,16.2,72,30.04,10.0,North,10.4,-,N/A,,Overcast,10,2013-03-23 22:15:00
5:35 PM,24.6,16.3,71,30.04,10.0,North,10.4,-,N/A,,Overcast,10,2013-03-23 22:35:00
5:55 PM,24.8,15.8,69,30.04,10.0,North,9.2,-,N/A,,Overcast,350,2013-03-23 22:55:00
6:15 PM,25.9,15.6,65,30.05,10.0,North,10.4,-,N/A,,Overcast,10,2013-03-23 23:15:00
6:35 PM,26.6,13.6,58,30.04,10.0,NNE,11.5,-,N/A,,Mostly Cloudy,20,2013-03-23 23:35:00
6:55 PM,26.1,12.2,56,30.05,10.0,North,12.7,17.3,N/A,,Mostly Cloudy,10,2013-03-23 23:55:00
7:15 PM,25.7,11.7,55,30.05,10.0,North,11.5,-,N/A,,Overcast,10,2013-03-24 00:15:00
7:35 PM,25.3,11.3,55,30.05,10.0,North,11.5,18.4,N/A,,Mostly Cloudy,10,2013-03-24 00:35:00
7:55 PM,23.9,10.4,56,30.06,10.0,North,11.5,18.4,N/A,,Scattered Clouds,10,2013-03-24 00:55:00
8:15 PM,22.6,10.4,59,30.06,10.0,North,11.5,-,N/A,,Clear,360,2013-03-24 01:15:00
8:35 PM,20.8,10.9,66,30.07,10.0,North,8.1,-,N/A,,Clear,350,2013-03-24 01:35:00
8:55 PM,20.3,10.8,67,30.07,10.0,North,9.2,-,N/A,,Scattered Clouds,360,2013-03-24 01:55:00
9:15 PM,19.4,10.4,68,30.07,10.0,North,8.1,-,N/A,,Scattered Clouds,350,2013-03-24 02:15:00
9:35 PM,17.6,9.9,72,30.08,10.0,NNW,8.1,-,N/A,,Clear,340,2013-03-24 02:35:00
9:55 PM,16.7,9.3,73,30.09,10.0,North,8.1,-,N/A,,Clear,350,2013-03-24 02:55:00
10:15 PM,16.5,9.7,74,30.10,10.0,NNW,5.8,-,N/A,,Clear,330,2013-03-24 03:15:00
10:35 PM,15.8,9.1,75,30.11,10.0,NNW,6.9,-,N/A,,Clear,340,2013-03-24 03:35:00
10:55 PM,14.9,8.6,76,30.11,10.0,North,6.9,-,N/A,,Clear,350,2013-03-24 03:55:00
11:15 PM,15.4,8.6,74,30.11,10.0,North,6.9,-,N/A,,Clear,350,2013-03-24 04:15:00
11:35 PM,13.1,7.5,78,30.11,10.0,NW,4.6,-,N/A,,Clear,320,2013-03-24 04:35:00
11:55 PM,11.3,6.6,81,30.11,10.0,WNW,6.9,-,N/A,,Clear,300,2013-03-24 04:55:00